This demonstration page uses our WeatherBlox Daily Observations layout. Learn more.

Left ArrowRight Arrow

41.12389, -100.76542

Hourly Observations for March 16, 2021

Temp ( °F °C ) Dew Point ( °F °C ) Humidity (%) Winds ( mph kmh ) Pressure ( in mb ) Visibility ( mi km ) Precip ( " mm )
12:53 am 00:53 Cloudy with Light Rain 38 3.3 34 1.1 86 86 E 5 7 29.82 1010 10 16 0.01 0.25
1:53 am 01:53 Cloudy with Light Rain 38 3.3 35 1.7 89 89 Calm 29.81 1010 10 16 0.03 0.76
2:53 am 02:53 Cloudy with Light Rain 38 3.3 35 1.7 89 89 NNW 3 6 29.82 1010 9 14 0.03 0.76
3:04 am 03:04 Cloudy with Light Rain 38 3.3 35 1.7 89 89 Calm 29.87 1011 10 16 0.01 0.25
3:53 am 03:53 Cloudy with Light Rain 38 3.3 35 1.7 89 89 NW 5 7 29.82 1010 10 16 0.05 1.27
4:39 am 04:39 Cloudy with Light Rain 37 2.8 34 1.1 89 89 WNW 6 9 29.86 1011 10 16 0.02 0.51
4:53 am 04:53 Cloudy with Light Rain 37 2.8 34 1.1 89 89 WNW 6 9 29.82 1010 10 16 0.03 0.76
5:05 am 05:05 Cloudy with Light Rain 37 2.8 33 0.6 86 86 WNW 8 13 29.86 1011 10 16 0.01 0.25
5:53 am 05:53 Cloudy with Light Rain 37 2.8 34 1.1 89 89 Calm 29.83 1010 10 16 0.01 0.25
6:11 am 06:11 Cloudy with Light Rain 37 2.8 34 1.1 89 89 WNW 5 7 29.87 1012 10 16 0.00 0.00
6:26 am 06:26 Cloudy 37 2.8 34 1.1 89 89 NW 3 6 29.87 1012 10 16 0.01 0.25
6:53 am 06:53 Cloudy 37 2.8 33 0.6 86 86 WNW 5 7 29.84 1010 10 16 0.01 0.25
7:03 am 07:03 Cloudy 37 2.8 34 1.1 89 89 WNW 5 7 29.88 1012 10 16 0.00 0.00
7:13 am 07:13 Cloudy 37 2.8 34 1.1 89 89 NW 5 7 29.88 1012 10 16 0.00 0.00
7:27 am 07:27 Cloudy 37 2.8 33 0.6 86 86 WNW 7 11 29.88 1012 10 16 0.00 0.00
7:53 am 07:53 Mostly Cloudy 36 2.2 32 0 86 86 WNW 8 13 29.85 1011 10 16 0.00 0.00
8:48 am 08:48 Cloudy 36 2 32 0 87 87 NW 14 22 29.93 1014 10 16 0.00 0.00
8:53 am 08:53 Cloudy 36 2.2 32 0 86 86 NNW 10 17 29.88 1012 10 16 0.00 0.00
9:00 am 09:00 Cloudy 36 2.2 32 0 86 86 NNW 10 17 29.93 1013 10 16 0.00 0.00
9:21 am 09:21 Cloudy 36 2.2 31 -0.6 82 82 NNW 10 17 29.93 1013 10 16 0.00 0.00
9:53 am 09:53 Cloudy 36 2.2 31 -0.6 82 82 N 14 22 29.91 1013 10 16 0.00 0.00
10:53 am 10:53 Cloudy 37 2.8 30 -1.1 76 76 N 15 24 29.92 1013 10 16 0.00 0.00
11:34 am 11:34 Cloudy 37 2.8 31 -0.6 79 79 N 12 19 29.96 1015 10 16 0.00 0.00
11:53 am 11:53 Cloudy 39 3.9 31 -0.6 73 73 N 16 26 29.92 1013 10 16 0.00 0.00
12:53 pm 12:53 Cloudy 39 3.9 31 -0.6 73 73 N 8 13 29.93 1013 10 16 0.00 0.00
1:53 pm 13:53 Cloudy 39 3.9 30 -1.1 70 70 N 10 17 29.93 1013 10 16 0.00 0.00
2:53 pm 14:53 Cloudy 40 4.4 31 -0.6 70 70 NNW 9 15 29.92 1013 10 16 0.00 0.00
3:53 pm 15:53 Cloudy 39 3.9 29 -1.7 67 67 NNW 10 17 29.91 1013 10 16 0.00 0.00
4:53 pm 16:53 Mostly Cloudy 41 5 29 -1.7 62 62 NNW 9 15 29.91 1013 10 16 0.00 0.00
5:53 pm 17:53 Mostly Cloudy 41 5 29 -1.7 62 62 N 9 15 29.91 1013 10 16 0.00 0.00
6:00 pm 18:00 Partly Cloudy 41 5 29 -1.7 62 62 N 10 17 29.92 1013 10 16 0.00 0.00
6:16 pm 18:16 Mostly Cloudy 41 5 29 -1.7 62 62 N 10 17 29.93 1013 10 16 0.00 0.00
6:32 pm 18:32 Partly Cloudy 41 5 29 -1.7 62 62 NNW 10 17 29.93 1013 10 16 0.00 0.00
6:53 pm 18:53 Sunny 41 5 29 -1.7 62 62 N 9 15 29.93 1014 10 16 0.00 0.00
7:53 pm 19:53 Mostly Cloudy 38 3.3 28 -2.2 68 68 N 12 19 29.97 1015 10 16 0.00 0.00
8:53 pm 20:53 Mostly Clear 35 1.7 26 -3.3 70 70 N 14 22 30.00 1016 10 16 0.00 0.00
9:53 pm 21:53 Mostly Cloudy 34 1.1 26 -3.3 73 73 NNW 5 7 30.04 1017 10 16 0.00 0.00
10:53 pm 22:53 Cloudy 35 1.7 25 -3.9 67 67 NNW 8 13 30.03 1017 10 16 0.00 0.00
11:53 pm 23:53 Cloudy 34 1.1 26 -3.3 73 73 NNW 3 6 30.02 1017 10 16 0.00 0.00

Powered by AerisWeather